YBRMYPPD

Guest
Details From YBRM - Broome Intl
To YPPD - Port Hedland Intl
Flight Number -
Tags generated
Created
Modified
Stats Distance 252 nm / 468 km
Max Altitude 27,000 ft / 8,230 m
Waypoints 5
Social Downloads 1
Likes 0
Share VATSIM

Download

Looking for another format? Having issues loading an existing format? Contact us
Advertisement - Login to hide

Notes

Basic altitude profile: - Ascent Rate: 2500ft/min - Ascent Speed: 250kts - Cruise Altitude: 35000ft - Cruise Speed: 420kts - Descent Rate: 1500ft/min - Descent Speed: 250kts Options: - Use NATs: yes - Use PACOTS: yes - Use low airways: yes - Use high airways: yes

Route

YBRM BRM J93 PD YPPD

ID Type Via Altitude Latitude Longitude Leg Dist Tot Dist Heading (true) Name
O YBRM APT - 0 ft / 0 m -17.94875˚ 122.22723˚ - 0 nm - Broome Intl
BRM NDB - 100 ft / 30 m -17.94639˚ 122.23528˚ 0 nm 0 nm 73° / 73° BROOME NDB-DME
SNAPA FIX J93 (AWY-LO) 27,000 ft / 8,230 m -19.16667˚ 120.44333˚ 125 nm 126 nm 234° / 235° -
PD VOR J93 (AWY-LO) 0 ft / 0 m -20.37833˚ 118.62278˚ 126 nm 252 nm 234° / 235° PORT HEDLAND VOR-DME
O YPPD APT - 0 ft / 0 m -20.37855˚ 118.62943˚ 0 nm 252 nm 92° / 92° Port Hedland Intl

Altitude Profile

Advertisement - Login to hide

Weather


0- 5 10 15 20 25 30 35+ Temperature / ° C

Clouds and Precipitation
Forecast for 2018-07-18 18:00 UTC. Updated 5 hours ago

Ground ~20,000 ft ~40,000 ft Winds

YBRM

Details ICAO YBRM
Name Broome Intl
Region Australia
Timezone Australia/Perth (UTC+8.0)
Stats Elevation 56 ft / 17 m (AMSL)
Location -17.948745° 122.227225°
Runways 1
Magnetic Variation 1.755° E

METAR

YBRM 182000Z AUTO 09004KT 9999 // NCD 13/12 Q1013

Decode

TAF

TAF AMD YBRM 182002Z 1820/1918 VRB05KT CAVOK FM190400 27008KT CAVOK FM191000 VRB03KT CAVOK PROB30 1820/1824 0300 FG

Decode

Departure Runways

ID Width Length Bearing (true) Bearing (mag) Surface Threshold Offset Overrun Length
10 148 ft / 45 m 8,325 ft / 2,537 m 105.60° 103.84° Asphalt 292 ft / 89 m 52 ft / 16 m
28 148 ft / 45 m 8,325 ft / 2,537 m 285.60° 283.84° Asphalt 666 ft / 203 m 0 ft / 0 m

YPPD

Details ICAO YPPD (PHE)
Name Port Hedland Intl
Region Australia
Timezone Australia/Perth (UTC+8.0)
Stats Elevation 33 ft / 10 m (AMSL)
Location -20.378551° 118.629429°
Runways 2
Magnetic Variation 1.236° E

METAR

YPPD 182000Z AUTO 20008KT 9999 // NCD 14/10 Q1014

Decode

TAF

TAF YPPD 181706Z 1818/1918 16005KT CAVOK FM190100 11016KT CAVOK FM190400 02010KT CAVOK FM191500 14006KT CAVOK

Decode

Destination Runways

ID Width Length Bearing (true) Bearing (mag) Surface Threshold Offset Overrun Length
14 148 ft / 45 m 8,216 ft / 2,504 m 137.60° 136.36° Asphalt 0 ft / 0 m 0 ft / 0 m
18 59 ft / 18 m 3,292 ft / 1,003 m 2.40° 1.16° Asphalt 0 ft / 0 m 0 ft / 0 m
32 148 ft / 45 m 8,216 ft / 2,504 m 317.60° 316.36° Asphalt 0 ft / 0 m 0 ft / 0 m
36 59 ft / 18 m 3,292 ft / 1,003 m 182.40° 181.16° Asphalt 0 ft / 0 m 0 ft / 0 m

Popular Alternatives